Location: Budapest
(47.4979°N, 19.0402°E)
Time: 07:52:49
(UTC+01:00)

Vanguard 2 - Visible Passes

Search period start: 21 February 2018 00:00
Search period end: 03 March 2018 00:00
Orbit: 553 x 2939 km, 32.9° (Epoch: 20 February)

Date Brightness Start Highest point End Pass type
(mag) Time Alt. Az. Time Alt. Az. Time Alt. Az.
21 Feb 9.9 18:09:40 10° SW 18:17:28 26° S 18:22:49 10° SE visible
21 Feb 9.8 20:20:34 10° WSW 20:24:40 18° SSW 20:24:40 18° SSW visible
22 Feb 9.8 18:27:22 10° WSW 18:35:16 27° S 18:40:26 11° SE visible
22 Feb 10.1 20:38:56 10° WSW 20:41:52 15° SW 20:41:52 15° SW visible
23 Feb 9.7 18:45:13 10° WSW 18:53:02 27° SSW 18:57:40 13° SE visible
23 Feb 10.3 20:57:49 10° SW 20:59:05 12° SW 20:59:05 12° SW visible
24 Feb 9.7 19:03:13 10° WSW 19:10:44 26° SSW 19:14:52 15° SSE visible
25 Feb 9.8 19:21:22 10° WSW 19:28:22 23° SSW 19:32:07 15° SSE visible
26 Feb 10.0 19:39:43 10° WSW 19:45:55 20° SSW 19:49:22 14° S visible
27 Feb 10.2 17:45:15 10° WSW 17:55:50 33° SSW 18:02:47 10° SE visible
27 Feb 10.2 19:58:23 10° WSW 20:03:22 16° SW 20:06:38 12° S visible
28 Feb 10.3 18:03:18 10° WSW 18:13:31 31° SSW 18:20:19 10° SE visible
28 Feb 10.4 20:17:49 10° WSW 20:20:43 12° SW 20:23:14 10° SSW visible
01 Mar 10.3 18:21:30 10° WSW 18:31:07 28° SSW 18:37:42 10° SSE visible
02 Mar 10.4 18:39:51 10° WSW 18:48:37 24° SSW 18:54:51 10° SSE visible
